Location: Andiroba
(19.8650°S, 43.9258°W)
Time: 01:27:29
(UTC+00:00)

Cosmos 1447 Rocket - Visible Passes

Search period start: 18 September 2024 00:00
Search period end: 28 September 2024 00:00
Orbit: 953 x 996 km, 82.9° (Epoch: 17 September)

Date Brightness Start Highest point End Pass type
(mag) Time Alt. Az. Time Alt. Az. Time Alt. Az.
18 Sep 6.3 07:14:15 10° SSE 07:19:46 32° E 07:25:10 10° NE visible
19 Sep 4.9 07:38:39 10° S 07:44:52 68° E 07:50:58 10° NNE visible
20 Sep 7.5 06:22:13 10° ESE 06:24:19 12° ESE 06:26:23 10° E visible
20 Sep 4.5 08:03:44 10° SSW 08:09:51 59° W 08:15:51 10° N visible
20 Sep 7.6 21:23:09 10° WNW 21:26:40 15° W 21:30:13 10° SW visible
21 Sep 6.5 06:44:31 10° SSE 06:49:35 26° E 06:54:34 10° NE visible
22 Sep 5.2 07:08:39 10° S 07:14:44 54° E 07:20:42 10° NNE visible
23 Sep 4.4 07:33:32 10° S 07:39:45 74° W 07:45:50 10° N visible
24 Sep 6.8 06:14:53 10° SSE 06:19:24 21° E 06:23:51 10° NE visible
24 Sep 5.0 07:59:06 10° SSW 08:04:38 35° W 08:10:06 10° NNW visible
25 Sep 5.5 06:38:42 10° SSE 06:44:35 43° E 06:50:21 10° NNE visible
26 Sep 4.4 07:03:24 10° S 07:09:37 90° ESE 07:15:45 10° N visible
27 Sep 7.0 05:45:26 10° SE 05:49:11 16° E 05:52:54 10° ENE visible
27 Sep 4.7 07:28:44 10° SSW 07:34:33 43° W 07:40:17 10° NNW visible
